| time (UTC) | temp F | wind direction | speed MPH | gust MPH | rain 1hr in | rain 24hr in | rain mn in | humidity % | barometer mb |
| 20260507003558 | 47 | 288 | 2.0 | 4.0 | 0.00 | 0.24 | 0.24 | 100 | 855.2 |
| 20260507002518 | 47 | 282 | 2.0 | 3.0 | 0.02 | 0.24 | 0.24 | 100 | 855.2 |
| 20260507001518 | 48 | 279 | 2.0 | 4.0 | 0.05 | 0.24 | 0.24 | 100 | 855.2 |
| 20260507000522 | 48 | 3 | 4.0 | 8.0 | 0.05 | 0.24 | 0.24 | 100 | 855.3 |
| 20260506235602 | 49 | 25 | 5.0 | 9.0 | 0.05 | 0.24 | 0.24 | 100 | 855.3 |
| 20260506234522 | 49 | 26 | 3.0 | 7.0 | 0.05 | 0.24 | 0.24 | 99 | 855.3 |
| 20260506233522 | 50 | 5 | 3.0 | 8.0 | 0.05 | 0.24 | 0.24 | 99 | 855.4 |
| 20260506232522 | 51 | 10 | 2.0 | 6.0 | 0.03 | 0.22 | 0.22 | 99 | 855.4 |
| 20260506231540 | 52 | 13 | 2.0 | 5.0 | 0.01 | 0.20 | 0.19 | 98 | 855.5 |
| 20260506230523 | 53 | 331 | 2.0 | 6.0 | 0.01 | 0.19 | 0.19 | 97 | 855.6 |
| 20260506225620 | 54 | 356 | 3.0 | 4.0 | 0.01 | 0.19 | 0.19 | 98 | 855.7 |
| 20260506224523 | 56 | 1 | 3.0 | 7.0 | 0.01 | 0.19 | 0.19 | 97 | 855.7 |
| 20260506223558 | 59 | 6 | 4.0 | 7.0 | 0.01 | 0.19 | 0.19 | 96 | 855.9 |
| 20260506222523 | 60 | 319 | 3.0 | 7.0 | 0.01 | 0.20 | 0.19 | 96 | 856.1 |
| 20260506221546 | 61 | 297 | 1.0 | 4.0 | 0.00 | 0.20 | 0.18 | 94 | 856.1 |
| 20260506220526 | 60 | 295 | 1.0 | 3.0 | 0.00 | 0.20 | 0.18 | 94 | 856.1 |
| 20260506215525 | 60 | 252 | 0.0 | 2.0 | 0.00 | 0.20 | 0.18 | 95 | 856.1 |
| 20260506214527 | 60 | 19 | 0.0 | 3.0 | 0.00 | 0.20 | 0.18 | 95 | 856.1 |
| 20260506213526 | 60 | 10 | 1.0 | 2.0 | 0.00 | 0.20 | 0.18 | 95 | 856.1 |
| 20260506212521 | 60 | 242 | 1.0 | 3.0 | 0.00 | 0.20 | 0.18 | 95 | 856.1 |
| 20260506211521 | 60 | 225 | 1.0 | 3.0 | 0.00 | 0.20 | 0.18 | 93 | 856.1 |
| 20260506210521 | 61 | 36 | 1.0 | 2.0 | 0.00 | 0.20 | 0.18 | 94 | 856.1 |
| 20260506205521 | 61 | 243 | 1.0 | 3.0 | 0.00 | 0.20 | 0.18 | 92 | 856.1 |
| 20260506204519 | 61 | 251 | 3.0 | 5.0 | 0.00 | 0.20 | 0.18 | 93 | 856.1 |
| 20260506203522 | 61 | 284 | 2.0 | 4.0 | 0.00 | 0.20 | 0.18 | 93 | 856.1 |
| 20260506202519 | 60 | 247 | 2.0 | 6.0 | 0.00 | 0.20 | 0.18 | 94 | 856.1 |
| 20260506201522 | 60 | 167 | 0.0 | 2.0 | 0.00 | 0.20 | 0.18 | 95 | 856.1 |
| 20260506200519 | 61 | 237 | 2.0 | 6.0 | 0.00 | 0.20 | 0.18 | 95 | 856.1 |
| 20260506195522 | 61 | 26 | 1.0 | 2.0 | 0.00 | 0.20 | 0.18 | 95 | 856.1 |
| 20260506194523 | 61 | 5 | 2.0 | 3.0 | 0.00 | 0.20 | 0.18 | 94 | 856.1 |
| 20260506193520 | 61 | 264 | 3.0 | 6.0 | 0.01 | 0.20 | 0.18 | 96 | 856.1 |
| 20260506192523 | 60 | 30 | 1.0 | 2.0 | 0.02 | 0.20 | 0.18 | 96 | 856.1 |
| 20260506191523 | 60 | 18 | 2.0 | 3.0 | 0.02 | 0.20 | 0.18 | 96 | 856.1 |
| 20260506190523 | 60 | 38 | 2.0 | 4.0 | 0.02 | 0.20 | 0.18 | 95 | 856.1 |
| 20260506185520 | 60 | 224 | 2.0 | 5.0 | 0.03 | 0.20 | 0.18 | 95 | 856.1 |
| 20260506184523 | 60 | 180 | 2.0 | 3.0 | 0.03 | 0.20 | 0.18 | 95 | 856.1 |
| 20260506183524 | 60 | 256 | 2.0 | 4.0 | 0.04 | 0.19 | 0.17 | 95 | 856.1 |
| 20260506182524 | 60 | 149 | 1.0 | 5.0 | 0.05 | 0.19 | 0.16 | 95 | 856.1 |
| 20260506181524 | 60 | 179 | 2.0 | 4.0 | 0.07 | 0.18 | 0.16 | 96 | 856.1 |
| 20260506180524 | 60 | 214 | 2.0 | 4.0 | 0.08 | 0.18 | 0.15 | 96 | 856.1 |
| 20260506175524 | 60 | 62 | 1.0 | 1.0 | 0.09 | 0.17 | 0.15 | 98 | 856.1 |
| 20260506174528 | 60 | 88 | 1.0 | 2.0 | 0.11 | 0.17 | 0.15 | 97 | 856.0 |
| 20260506173529 | 60 | 12 | 2.0 | 2.0 | 0.10 | 0.16 | 0.13 | 97 | 856.1 |
| 20260506172529 | 60 | 220 | 1.0 | 2.0 | 0.10 | 0.14 | 0.12 | 95 | 856.1 |
| 20260506171525 | 60 | 313 | 2.0 | 3.0 | 0.07 | 0.11 | 0.09 | 94 | 856.1 |
| 20260506170525 | 60 | 217 | 1.0 | 4.0 | 0.06 | 0.10 | 0.07 | 95 | 856.1 |
| 20260506165545 | 60 | 262 | 1.0 | 2.0 | 0.05 | 0.08 | 0.06 | 96 | 856.1 |
| 20260506164525 | 60 | 21 | 1.0 | 3.0 | 0.04 | 0.06 | 0.04 | 95 | 856.1 |
| 20260506163525 | 60 | 27 | 0.0 | 1.0 | 0.03 | 0.05 | 0.03 | 95 | 856.1 |
| 20260506162526 | 61 | 2 | 0.0 | 1.0 | 0.02 | 0.04 | 0.02 | 94 | 856.1 |
| 20260506161526 | 61 | 25 | 0.0 | 1.0 | 0.02 | 0.04 | 0.02 | 92 | 856.1 |
| 20260506160526 | 61 | 307 | 1.0 | 4.0 | 0.01 | 0.03 | 0.01 | 92 | 856.2 |
| 20260506155527 | 61 | 247 | 2.0 | 4.0 | 0.01 | 0.03 | 0.01 | 91 | 856.2 |
| 20260506154526 | 61 | 193 | 0.0 | 2.0 | 0.00 | 0.03 | 0.00 | 92 | 856.2 |
| 20260506153526 | 61 | 245 | 1.0 | 2.0 | 0.00 | 0.02 | 0.00 | 92 | 856.2 |
| 20260506152531 | 61 | 102 | 0.0 | 1.0 | 0.00 | 0.02 | 0.00 | 93 | 856.2 |
| 20260506151552 | 62 | 58 | 0.0 | 1.0 | 0.00 | 0.02 | 0.00 | 93 | 856.2 |
| 20260506150532 | 62 | 236 | 0.0 | 2.0 | 0.00 | 0.02 | 0.00 | 93 | 856.2 |
| 20260506145532 | 63 | 136 | 0.0 | 0.0 | 0.00 | 0.02 | 0.00 | 88 | 856.2 |
| 20260506144532 | 64 | 230 | 1.0 | 3.0 | 0.00 | 0.02 | 0.00 | 85 | 856.3 |
| 20260506143554 | 64 | 248 | 1.0 | 4.0 | 0.00 | 0.02 | 0.00 | 82 | 856.3 |
| 20260506142528 | 64 | 245 | 1.0 | 3.0 | 0.00 | 0.02 | 0.00 | 81 | 856.4 |
| 20260506141528 | 64 | 208 | 1.0 | 2.0 | 0.00 | 0.02 | 0.00 | 80 | 856.4 |
| 20260506140519 | 65 | 225 | 2.0 | 7.0 | 0.00 | 0.02 | 0.00 | 79 | 856.4 |
| 20260506135600 | 65 | 216 | 2.0 | 7.0 | 0.00 | 0.02 | 0.00 | 80 | 856.4 |
| 20260506134520 | 65 | 223 | 3.0 | 8.0 | 0.00 | 0.02 | 0.00 | 79 | 856.4 |
| 20260506133520 | 65 | 229 | 3.0 | 5.0 | 0.00 | 0.02 | 0.00 | 79 | 856.4 |
| 20260506132529 | 64 | 215 | 2.0 | 4.0 | 0.00 | 0.02 | 0.00 | 80 | 856.4 |
| 20260506131529 | 63 | 220 | 2.0 | 5.0 | 0.00 | 0.02 | 0.00 | 81 | 856.3 |
| 20260506130517 | 63 | 207 | 3.0 | 11.0 | 0.00 | 0.02 | 0.00 | 81 | 856.3 |
| 20260506125520 | 63 | 225 | 3.0 | 8.0 | 0.00 | 0.02 | 0.00 | 82 | 856.3 |
| 20260506124529 | 62 | 234 | 2.0 | 5.0 | 0.00 | 0.02 | 0.00 | 82 | 856.2 |
| 20260506123521 | 62 | 215 | 3.0 | 7.0 | 0.00 | 0.02 | 0.00 | 82 | 856.2 |
| 20260506122610 | 62 | 220 | 2.0 | 4.0 | 0.00 | 0.02 | 0.00 | 82 | 856.2 |
| 20260506121530 | 62 | 236 | 2.0 | 4.0 | 0.00 | 0.02 | 0.00 | 82 | 856.2 |
| 20260506120521 | 62 | 240 | 2.0 | 5.0 | 0.00 | 0.02 | 0.00 | 82 | 856.2 |
| 20260506115530 | 61 | 219 | 3.0 | 5.0 | 0.00 | 0.02 | 0.00 | 82 | 856.2 |
| 20260506114530 | 61 | 235 | 1.0 | 4.0 | 0.00 | 0.02 | 0.00 | 83 | 856.1 |
| 20260506113530 | 60 | 122 | 1.0 | 3.0 | 0.00 | 0.02 | 0.00 | 83 | 856.1 |
| 20260506112550 | 59 | 78 | 1.0 | 4.0 | 0.00 | 0.02 | 0.00 | 86 | 856.0 |
| 20260506111531 | 57 | 0 | 1.0 | 4.0 | 0.00 | 0.02 | 0.00 | 89 | 855.9 |
| 20260506110550 | 56 | 276 | 2.0 | 5.0 | 0.00 | 0.02 | 0.00 | 91 | 855.8 |
| 20260506105531 | 55 | 28 | 1.0 | 2.0 | 0.00 | 0.02 | 0.00 | 95 | 855.7 |
| 20260506104531 | 54 | 97 | 2.0 | 3.0 | 0.00 | 0.03 | 0.00 | 96 | 855.7 |
| 20260506103531 | 54 | 319 | 1.0 | 2.0 | 0.00 | 0.03 | 0.00 | 98 | 855.6 |
| 20260506102531 | 53 | 68 | 1.0 | 3.0 | 0.00 | 0.03 | 0.00 | 99 | 855.6 |
| 20260506101532 | 52 | 95 | 1.0 | 2.0 | 0.00 | 0.03 | 0.00 | 100 | 855.6 |
| 20260506100557 | 52 | 284 | 1.0 | 2.0 | 0.00 | 0.03 | 0.00 | 100 | 855.5 |
| 20260506095518 | 52 | 272 | 1.0 | 2.0 | 0.00 | 0.03 | 0.00 | 100 | 855.5 |
| 20260506094533 | 52 | 263 | 2.0 | 4.0 | 0.00 | 0.03 | 0.00 | 100 | 855.5 |
| 20260506093532 | 52 | 74 | 1.0 | 1.0 | 0.00 | 0.03 | 0.00 | 100 | 855.5 |
| 20260506092553 | 52 | 116 | 1.0 | 2.0 | 0.00 | 0.03 | 0.00 | 100 | 855.5 |
| 20260506091538 | 52 | 246 | 1.0 | 2.0 | 0.00 | 0.03 | 0.00 | 100 | 855.5 |
| 20260506090517 | 52 | 232 | 0.0 | 1.0 | 0.00 | 0.03 | 0.00 | 100 | 855.5 |
| 20260506085518 | 53 | 75 | 1.0 | 1.0 | 0.00 | 0.03 | 0.00 | 100 | 855.6 |
| 20260506084519 | 52 | 270 | 1.0 | 2.0 | 0.00 | 0.03 | 0.00 | 100 | 855.5 |
| 20260506083518 | 52 | 251 | 1.0 | 2.0 | 0.00 | 0.03 | 0.00 | 100 | 855.5 |
| 20260506082517 | 53 | 252 | 1.0 | 2.0 | 0.00 | 0.03 | 0.00 | 100 | 855.6 |
| 20260506081517 | 53 | 256 | 1.0 | 2.0 | 0.00 | 0.03 | 0.00 | 100 | 855.6 |
| 20260506080519 | 54 | 262 | 2.0 | 3.0 | 0.00 | 0.03 | 0.00 | 100 | 855.6 |
| 20260506072518 | 54 | 86 | 1.0 | 3.0 | 0.00 | 0.03 | 0.00 | 99 | 855.7 |
| 20260506071518 | 55 | 240 | 1.0 | 2.0 | 0.00 | 0.03 | 0.00 | 98 | 855.7 |
| 20260506070517 | 55 | 152 | 0.0 | 1.0 | 0.00 | 0.03 | 0.00 | 97 | 855.7 |
| 20260506061518 | 57 | 169 | 0.0 | 1.0 | 0.00 | 0.03 | 0.00 | 96 | 855.8 |
| 20260506060518 | 57 | 250 | 1.0 | 2.0 | 0.00 | 0.03 | 0.00 | 95 | 855.8 |
| 20260506050520 | 57 | 254 | 2.0 | 3.0 | 0.00 | 0.03 | 0.00 | 97 | 855.9 |
| 20260506044517 | 58 | 251 | 2.0 | 3.0 | 0.00 | 0.03 | 0.00 | 96 | 855.9 |
| 20260506043517 | 58 | 260 | 2.0 | 3.0 | 0.00 | 0.03 | 0.00 | 96 | 855.9 |
| 20260506042520 | 59 | 106 | 1.0 | 2.0 | 0.00 | 0.03 | 0.00 | 94 | 855.9 |
| 20260506041520 | 59 | 252 | 1.0 | 2.0 | 0.00 | 0.03 | 0.00 | 93 | 856.0 |
| 20260506040518 | 59 | 294 | 2.0 | 3.0 | 0.00 | 0.03 | 0.00 | 93 | 856.0 |
| 20260506035517 | 59 | 260 | 1.0 | 2.0 | 0.00 | 0.03 | 0.03 | 94 | 856.0 |
| 20260506034518 | 60 | 214 | 0.0 | 2.0 | 0.00 | 0.03 | 0.03 | 93 | 856.0 |
| 20260506033521 | 60 | 285 | 1.0 | 3.0 | 0.00 | 0.03 | 0.03 | 93 | 856.0 |
| 20260506032518 | 60 | 260 | 2.0 | 2.0 | 0.00 | 0.03 | 0.03 | 94 | 856.0 |
| 20260506031518 | 60 | 255 | 1.0 | 2.0 | 0.00 | 0.03 | 0.03 | 93 | 856.0 |
| 20260506030519 | 60 | 196 | 0.0 | 1.0 | 0.00 | 0.03 | 0.03 | 92 | 856.1 |
| 20260506025539 | 60 | 304 | 0.0 | 2.0 | 0.00 | 0.03 | 0.03 | 91 | 856.1 |
| 20260506024519 | 60 | 265 | 1.0 | 3.0 | 0.00 | 0.03 | 0.03 | 91 | 856.1 |
| 20260506023519 | 60 | 259 | 2.0 | 4.0 | 0.00 | 0.03 | 0.03 | 93 | 856.0 |
| 20260506022540 | 60 | 267 | 0.0 | 1.0 | 0.00 | 0.03 | 0.03 | 94 | 856.0 |
| 20260506021540 | 60 | 252 | 1.0 | 2.0 | 0.00 | 0.03 | 0.03 | 93 | 856.1 |
| 20260506020600 | 60 | 81 | 0.0 | 2.0 | 0.00 | 0.03 | 0.03 | 92 | 856.1 |
| 20260506015540 | 60 | 296 | 1.0 | 3.0 | 0.00 | 0.03 | 0.03 | 91 | 856.1 |
| 20260506014520 | 61 | 259 | 1.0 | 2.0 | 0.00 | 0.03 | 0.03 | 92 | 856.1 |
| 20260506013540 | 62 | 184 | 0.0 | 2.0 | 0.00 | 0.03 | 0.03 | 89 | 856.1 |
| 20260506012517 | 62 | 254 | 0.0 | 2.0 | 0.00 | 0.03 | 0.03 | 85 | 856.2 |
| 20260506011518 | 62 | 259 | 4.0 | 6.0 | 0.00 | 0.03 | 0.03 | 83 | 856.2 |
| 20260506010533 | 61 | 257 | 1.0 | 2.0 | 0.00 | 0.03 | 0.03 | 87 | 856.1 |
| 20260506005018 | 62 | 255 | 0.0 | 2.0 | 0.00 | 0.03 | 0.03 | 88 | 856.1 |
| 20260506004030 | 62 | 0.0 | 0.0 | 0.00 | 0.03 | 0.03 | 86 | 856.2 |